Reflectivity
-20 -1 -20 -20 3 -1 -20 -20 -20 -20 -20 -20 -20 -20 -20 -20 -20 -3 -20 -20 -20 -20 -20 -20 -20 -20 -20 -20 -20 -20 -20 -20 -20 -20 -9 -10 15 14 2 -20 -20 -20 -20
-20 -13 -20 -20 -20 -20 -19 -20 -13 -20 -20 -20 -20 -5 -20 -8 -2 -9 -8 -20 -8 -20 -20 -20 -20 -20 -20 -20 -20 -20 -20 -20 -20 -20 -20 -20 -20 -20 -20 -20 -20 -20 -20
-12 -7 -20 -20 -20 -18 -20 -18 2 -20 -20 -20 -20 -5 3 6 -11 13 -16 11 -20 -20 -20 -20 -20 -20 -20 -20 -20 -20 -20 -20 -20 -20 -20 -20 -20 -20 -20 -20 -20 -20 -20
-20 -20 -20 -20 -13 -20 -20 -20 -20 -20 -20 -14 -6 -20 -3 -20 -20 13 -11 19 -20 -20 -20 -20 -20 -20 -20 -20 -20 -20 -20 -20 -20 -20 -20 -20 -20 -20 -20 -9 -9 -20 -12
-15 -20 -18 6 -16 -19 -10 -20 -20 -20 -20 -2 -11 9 -20 -20 -20 -10 -11 14 -20 -20 -20 -20 -20 -20 -20 -20 -20 -20 -20 -20 -20 -20 -20 -20 -20 8 15 -13 -17 -11 16
-5 -20 -20 12 -9 -20 -20 -20 -20 -20 -20 -20 -20 5 -20 -20 -20 -20 -20 10 -20 -20 -20 -20 -20 -20 -20 -20 -20 -20 -20 -20 -20 7 -20 13 16 1 8 13 13 4 1
-20 -20 -20 8 -8 -15 -20 -20 -20 -20 -20 -20 -8 -19 -20 -20 -17 -20 -20 -17 -20 -20 -20 -20 -20 -20 -20 -20 -20 -20 -20 -20 -20 -20 -20 -20 -20 -11 -12 10 15 15 12
-20 -20 -4 14 -20 8 2 -20 -20 -20 -20 -20 -20 -20 -20 -3 -14 -20 -20 -20 -20 -20 -20 -20 -20 -20 -20 -20 -20 -20 -20 -20 -20 -20 -20 -20 -20 -20 2 4 8 5 -4
-20 -17 1 -20 -20 -10 -20 -20 -20 -20 -20 -20 -20 -20 -20 -7 -9 -20 4 -20 -20 -20 -20 -20 -20 -20 -20 -20 -20 -20 -20 -20 -20 -20 -20 -20 -20 -20 -20 -20 -20 -20 -20
-20 -20 -1 -19 -14 6 8 -20 -20 -20 -20 -20 -20 -20 -15 2 2 -20 -20 -20 -20 -20 -20 -20 -20 -20 -20 -20 -20 -20 -20 -20 -20 -20 -20 -20 -20 -20 -20 -20 -20 -20 -20
-3 -20 -20 -15 2 -18 -19 -20 -20 -20 -20 -20 -20 -20 -20 -20 -20 -20 -20 -20 -20 -20 -20 -20 -20 -20 -20 -20 -20 -20 -20 -20 -20 -20 -20 -20 -20 -20 -20 -20 -20 -20 -20
13 -15 -20 -20 -20 -20 -12 -20 -20 -20 -20 -20 -20 -20 -20 -20 -20 -20 -20 -20 -20 -20 -20 -20 -20 -20 -20 -20 -20 -20 -20 -20 -20 -20 -20 -20 -20 -20 -20 -20 -20 -20 -20
-20 -20 -20 -20 -20 -20 -16 -20 -20 -20 -20 -20 -20 -20 -20 -20 -20 -20 -20 -20 -20 -20 -20 -20 -20 -20 -20 -20 -20 -20 -20 -20 -20 -20 -20 -20 -20 -20 -20 -20 -20 -20 -20
-17 -20 -20 -20 -20 -20 -20 -20 -20 -20 -20 -20 -20 -20 -20 -20 -20 -20 -20 -20 -20 -20 -20 -20 -20 -20 -20 -20 -20 -20 -20 -20 -20 -20 -20 -20 -20 -20 -20 -20 -20 -20 -20
-20 -20 -20 -15 -20 -20 -20 -20 -20 -20 -20 -20 -20 -20 -20 -20 -20 -20 -20 -20 -20 -20 -20 -20 -20 -20 -20 -20 -20 -20 -20 -20 -20 -20 -20 -20 -20 -20 -20 -20 -20 -20 -20
-20 -20 -20 -20 -20 -20 -20 -20 -20 -20 -20 -20 -20 -20 -20 -20 -20 -20 -20 -20 -20 -20 -20 -20 -20 -20 -20 -20 -20 -20 -20 -20 -20 -20 -20 -20 -20 -20 -20 -20 -20 -20 -20
-20 -7 -20 -20 -20 -20 -4 -20 -20 -20 -20 -20 -20 -20 -20 -20 -20 -20 -20 -20 -20 -20 -20 -20 -20 -20 -20 -20 -20 -20 -20 -20 -20 -20 -20 -20 -20 -20 -20 -20 -20 -20 -20
-20 -20 -20 -20 -20 -20 -20 -20 -20 -20 -20 -20 -20 -20 -20 -20 -20 -20 -20 -20 -20 -20 -20 -20 -20 -20 -20 -20 -20 -20 -20 -20 -20 -20 -20 -20 -20 -20 -20 -20 -20 -20 -20
-20 -12 -20 -20 -20 -20 -20 -20 -20 -20 -20 -20 -20 -20 -20 -20 -20 -20 -20 -20 -20 -20 -20 -20 -20 -20 -20 -20 -20 -20 -20 -20 -20 -20 -20 -20 -20 -20 -20 -20 -20 -20 -20
-20 -20 -20 -20 -1 5 -20 -20 -20 -20 -20 -20 -20 -20 -20 -20 -20 -20 -20 -20 -20 -20 -20 -20 -20 -20 -20 -20 -20 -20 -20 -20 -20 -20 -20 -20 -20 -20 -20 -20 -20 -20 -20
-20 -20 -20 -20 -20 -20 -20 -20 -20 -20 -20 -20 -20 -20 -20 -20 -20 -20 -20 -20 -20 -20 -20 -20 -20 -20 -20 -20 -20 -20 -20 -20 -20 -20 -20 -20 -20 -20 -20 -20 -20 -20 -20
-20 -20 -20 -20 -20 9 -20 -20 -20 -20 -20 -20 -20 -20 -20 -20 -20 -20 -20 -20 -20 -20 -20 -20 -20 -20 -20 -20 -20 -20 -20 -20 -20 -20 -20 -20 -20 -20 -20 -20 -20 -20 -20
-20 -20 -20 -20 -20 -20 5 -13 -20 -17 -20 -20 -20 -20 1 -20 4 -20 -20 -20 -20 -20 -20 -20 -20 -20 -20 -20 -20 -20 -20 -20 -20 -20 -20 -20 -20 -20 -20 -20 -10 -15 -20
-20 -20 -20 -20 -20 -20 -11 -20 -20 -20 -20 -20 -20 21 -20 -15 -19 -20 -20 -20 -20 -20 -20 -20 -20 -20 -20 -20 -20 -20 -20 -20 -20 -20 -20 15 -20 -20 -20 -20 -2 1 12
-20 -20 -20 -2 -7 -20 -20 -20 -18 -20 -20 -19 -20 -20 -20 -20 -20 -20 23 -19 -20 -20 -20 7 -20 -20 -20 -19 -20 -20 13 5 9 1 -0 -20 -20 13 -18 -20 -20 -20 -20
-20 -20 -20 -20 -20 -6 -18 -20 -20 -20 -20 12 2 -20 -20 -20 -20 -20 -20 -20 -20 -20 -20 -20 -20 -20 5 11 16 4 3 1 4 6 5 8 6 17 15 16 -6 -20 -6
Wind_Speed
13 12 19 18 18 18 17 17 16 16 16 17 17 17 16 16 16 15 15 15 15 14 14 15 14 14 14 14 15 15 16 15 15 14 11 11 15 17 15 14 13 7 11
15 15 20 19 18 18 17 17 16 16 16 16 16 16 15 15 15 15 15 15 15 15 14 15 15 15 15 15 16 16 16 15 14 12 9 9 11 13 13 13 10 9 11
16 15 16 19 18 17 17 17 17 16 16 16 17 16 15 15 14 14 15 15 16 15 14 15 14 14 15 15 15 14 12 11 9 7 7 4 6 12 12 10 10 11 10
16 14 14 19 19 18 17 17 17 16 16 16 18 17 14 14 13 12 14 15 16 15 15 15 14 13 14 14 14 12 9 7 5 6 3 3 5 12 10 6 12 11 9
14 13 14 19 19 18 18 17 17 16 16 16 16 17 15 13 12 12 12 15 16 16 15 14 14 13 13 12 12 11 12 14 11 8 4 3 5 11 14 17 14 11 13
13 12 15 19 19 19 18 17 16 15 14 11 15 17 16 13 13 13 12 17 15 15 15 14 13 12 11 9 10 12 14 11 9 7 5 9 6 15 15 16 15 14 14
13 12 13 18 19 19 18 18 16 15 13 13 14 16 16 14 14 14 14 16 15 15 15 14 12 11 9 8 9 10 10 9 5 6 6 6 6 12 11 13 14 13 12
14 13 12 16 17 18 18 18 16 15 13 12 12 12 13 13 15 14 17 16 15 15 15 13 11 9 9 7 8 9 8 10 6 6 6 5 9 12 11 10 10 11 11
13 12 10 11 12 15 17 17 16 15 13 12 11 10 7 15 15 15 16 15 15 15 14 13 11 9 8 8 7 8 9 12 6 4 5 3 10 10 11 11 11 10 11
12 12 13 8 10 10 10 15 14 14 13 12 10 10 8 13 13 15 14 14 14 12 12 11 11 8 6 6 6 9 9 8 5 5 4 4 10 10 10 9 10 10 10
11 14 14 12 11 8 8 9 12 13 13 12 10 10 6 4 6 8 7 12 13 12 12 12 10 8 5 3 3 8 6 3 4 3 3 9 11 10 10 9 9 9 9
13 14 13 14 12 9 8 8 6 7 5 5 7 7 4 5 4 6 7 10 11 10 10 10 10 8 5 1 1 1 2 4 3 4 3 9 11 10 9 9 9 9 9
11 9 10 11 11 11 8 6 4 4 4 4 6 7 6 4 3 3 3 3 3 5 3 3 4 2 3 2 3 2 3 4 3 2 5 10 11 10 9 9 8 8 9
13 11 11 11 11 10 7 7 7 6 5 5 6 6 5 4 4 4 4 4 4 3 4 3 2 3 4 5 4 3 3 4 3 2 4 10 11 10 10 9 9 8 8
13 11 11 11 11 10 9 7 7 7 6 7 6 6 5 5 5 4 4 4 4 4 4 4 4 4 4 5 5 4 3 5 6 3 3 9 10 11 11 11 9 9 8
9 8 10 11 11 10 10 10 8 7 8 6 6 7 8 6 6 6 5 5 4 4 4 4 4 4 5 4 5 6 5 5 6 5 4 5 11 12 12 11 12 11 10
6 7 8 7 10 13 12 10 7 8 7 7 6 7 9 7 8 8 6 5 6 6 6 4 4 3 4 3 5 4 5 5 5 6 5 4 5 10 11 13 13 12 12
9 10 7 7 8 11 7 6 6 6 6 7 6 6 9 9 10 7 6 6 5 4 5 4 4 4 4 4 4 5 4 4 6 6 5 4 4 4 8 12 13 13 13
10 8 9 7 8 7 7 6 4 7 6 6 7 7 8 9 10 7 6 5 6 5 4 5 4 4 3 4 4 4 4 5 6 4 6 6 6 5 4 8 11 12 12
9 9 8 6 7 7 4 4 3 2 3 5 6 6 8 7 10 8 5 6 6 4 4 3 4 3 3 4 3 3 3 3 3 4 6 6 5 6 6 6 5 5 10
7 9 10 10 8 7 3 3 2 3 2 3 4 8 9 8 8 8 6 6 5 7 7 6 4 6 3 3 3 2 2 5 5 5 4 4 6 7 6 5 4 4 4
12 12 9 8 6 6 5 3 3 3 2 2 3 4 5 7 8 8 8 7 7 4 6 6 5 3 3 5 4 2 2 4 4 5 5 5 6 4 5 6 5 5 4
5 8 12 13 11 8 5 4 3 2 1 2 3 3 4 5 5 6 7 7 7 6 7 6 7 7 4 4 6 5 1 6 2 1 4 4 5 4 4 5 5 6 6
4 5 6 6 6 5 8 5 5 7 9 5 3 2 4 5 5 6 6 6 6 6 7 7 6 6 4 6 1 6 1 4 4 4 2 3 3 4 5 4 6 7 5
5 5 5 6 6 4 6 6 6 4 2 0 1 3 4 5 6 6 6 6 6 5 6 6 6 8 8 8 6 3 5 1 1 2 5 3 2 3 2 3 4 4 5
5 6 5 7 5 5 6 5 5 6 4 3 3 4 4 3 4 6 6 6 5 4 6 7 7 7 6 5 5 5 6 5 7 4 3 3 3 0 2 4 5 3 4
Wind_Direction
161 156 148 149 147 142 141 134 133 128 125 121 119 116 116 115 114 115 114 109 104 100 97 94 93 94 91 91 93 91 89 89 89 88 76 65 86 88 85 83 76 67 75
143 147 148 146 146 144 143 139 135 133 127 126 125 125 124 124 125 125 122 115 107 104 100 97 96 95 94 96 98 94 93 93 90 80 70 66 77 82 81 81 84 79 76
141 144 144 145 146 146 144 142 137 136 133 134 130 126 128 127 129 129 127 126 111 108 102 100 100 100 99 102 101 99 95 98 102 72 91 81 89 90 90 92 93 88 78
141 144 145 147 147 148 145 141 141 140 142 141 136 128 127 125 125 127 135 125 117 110 106 103 102 104 104 103 96 90 86 100 128 143 121 111 102 99 87 98 111 86 75
141 145 147 149 147 144 144 144 145 147 147 150 136 132 131 132 132 133 129 130 120 116 112 111 109 110 109 103 95 84 91 96 100 106 105 76 127 102 78 80 94 94 88
141 141 151 149 145 144 144 144 143 142 148 150 134 135 132 138 138 137 130 130 124 122 122 118 116 117 112 104 93 80 92 85 93 94 74 70 84 86 78 82 84 81 78
140 141 151 148 147 148 148 145 142 139 135 128 131 133 130 140 138 140 135 133 131 130 129 126 123 121 116 105 88 75 68 92 86 90 84 72 77 88 88 80 76 70 68
142 145 151 148 152 150 146 144 142 141 138 132 135 135 135 147 143 140 141 137 137 138 135 133 132 133 126 118 104 81 71 108 103 98 94 94 96 102 100 94 93 87 87
140 142 143 150 148 147 146 144 145 142 139 139 138 128 150 177 146 145 146 143 144 145 141 142 145 146 137 128 112 82 85 118 123 115 110 98 106 106 107 105 101 95 92
145 142 151 149 147 148 150 146 146 143 140 137 130 121 125 133 145 149 147 148 144 146 146 151 158 156 146 137 137 101 96 110 122 116 113 126 120 115 112 115 112 109 103
149 158 159 155 152 145 145 154 148 147 144 138 129 129 101 117 132 137 146 145 148 152 157 162 163 161 159 165 167 116 101 134 130 127 141 139 132 128 129 127 125 118 113
155 164 164 159 156 149 158 151 146 145 149 149 148 144 137 132 134 135 144 146 153 159 164 169 168 166 163 206 272 106 109 143 141 160 162 148 143 144 141 138 136 130 125
157 162 162 158 159 160 161 158 156 154 154 162 165 157 157 151 154 140 137 145 143 157 161 163 159 167 187 208 244 194 141 155 165 195 170 157 155 155 151 150 149 145 141
160 174 174 170 165 171 159 167 168 165 172 170 183 166 158 155 167 162 164 167 164 167 178 175 179 202 219 229 236 242 180 185 169 213 179 164 166 167 166 166 164 161 155
169 170 173 177 172 174 169 173 173 178 178 187 178 178 160 161 173 168 169 171 182 171 177 192 198 207 224 238 247 238 226 184 175 185 173 175 173 175 179 177 179 175 172
169 169 161 182 180 173 179 179 180 175 186 182 183 182 178 170 173 182 179 189 188 190 190 188 195 203 215 220 245 233 224 187 180 183 179 185 181 183 188 191 189 188 184
181 171 167 156 169 180 184 186 181 183 176 185 191 178 180 175 177 180 184 192 200 197 190 200 213 214 223 211 233 223 187 186 191 187 185 190 193 190 195 198 202 200 194
170 194 173 164 160 168 165 178 190 183 174 186 192 186 186 186 181 180 186 192 196 184 190 188 192 214 229 218 204 212 195 195 193 193 187 188 195 198 206 210 207 207 207
175 175 197 178 170 163 157 146 162 196 176 177 191 193 184 186 187 185 185 196 184 190 188 198 209 182 196 207 217 212 208 209 206 186 200 197 200 200 207 225 206 208 214
185 174 184 186 180 174 163 131 118 136 208 176 182 189 181 189 190 188 184 188 181 179 195 181 189 191 188 188 203 213 239 242 236 213 203 205 204 204 207 214 211 204 205
171 174 184 179 181 165 155 151 145 179 168 210 197 187 189 196 189 185 191 189 182 193 196 192 179 192 212 153 103 351 303 251 246 232 228 209 208 209 205 206 211 194 203
181 180 179 193 174 186 180 158 141 155 188 167 199 198 203 200 191 191 190 198 192 186 195 195 178 178 199 173 146 101 303 314 261 224 214 223 217 198 205 206 199 199 197
213 183 178 184 191 197 175 119 108 105 83 176 207 213 212 201 204 213 200 196 195 189 207 202 191 189 199 205 206 153 100 230 322 334 248 220 212 200 197 195 204 201 201
147 129 128 146 156 179 172 181 183 201 209 215 188 210 187 198 203 206 203 201 193 203 210 206 190 203 152 207 214 235 221 151 191 308 316 306 215 206 211 211 207 216 201
96 88 92 97 94 97 153 174 191 201 216 337 191 220 226 218 210 204 217 193 197 192 215 207 196 207 211 220 206 160 209 41 27 163 257 293 343 351 277 241 201 174 164
80 92 108 106 82 76 91 100 172 193 197 216 251 238 234 219 219 220 211 206 210 204 217 224 223 207 212 219 214 210 200 187 205 172 226 223 210 95 34 14 11 51 107